• In Netherlands
  • List of Countries
  • For 7 days
  • Water Temperature
  • Satellite Maps
  • Weather Map
  • Weather Widgets
  • user-avatar
    Login

    Hourly Weather Kingston

    Today, 21 November, Tuesday

    Time Temperature Precipitation Wind Pressure Humidity
    00:00 +21°C° 0.5 mm 4 mps 704 mmHg 92%
    01:00 +21°C° 0.5 mm 4 mps 704 mmHg 92%
    02:00 +21°C° 0.3 mm 4 mps 703 mmHg 92%
    03:00 +21°C° 0.3 mm 3 mps 703 mmHg 93%
    04:00 +21°C° 0.3 mm 3 mps 703 mmHg 93%
    05:00 +21°C° 0.3 mm 3 mps 703 mmHg 93%
    06:00 +21°C° 0.3 mm 3 mps 704 mmHg 92%
    07:00 +21°C° 0.3 mm 3 mps 704 mmHg 92%
    08:00 +24°C° 0.3 mm 3 mps 704 mmHg 87%
    09:00 +25°C° 0.3 mm 3 mps 705 mmHg 82%
    10:00 +26°C° 0.3 mm 4 mps 705 mmHg 77%
    11:00 +26°C° 0.4 mm 4 mps 705 mmHg 76%
    12:00 +27°C° 0.4 mm 4 mps 705 mmHg 76%
    13:00 +27°C° 0.4 mm 4 mps 704 mmHg 75%
    14:00 +27°C° 0.5 mm 4 mps 704 mmHg 76%
    15:00 +26°C° 0.5 mm 4 mps 704 mmHg 78%
    16:00 +26°C° 0.5 mm 4 mps 704 mmHg 79%
    17:00 +25°C° 0.3 mm 3 mps 704 mmHg 83%
    18:00 +24°C° 0.3 mm 3 mps 704 mmHg 87%
    19:00 +23°C° 0.3 mm 2 mps 704 mmHg 92%
    20:00 +23°C° 0.2 mm 2 mps 704 mmHg 92%
    21:00 +21°C° 0.2 mm 2 mps 705 mmHg 93%
    22:00 +21°C° 0.2 mm 2 mps 705 mmHg 94%
    23:00 +21°C° 0.5 mm 2 mps 705 mmHg 94%

    Tomorrow, 22 November, Wednesday

    Time Temperature Precipitation Wind Pressure Humidity
    00:00 +21°C° 0.5 mm 2 mps 705 mmHg 94%
    01:00 +21°C° 0.5 mm 2 mps 704 mmHg 94%
    02:00 +21°C° 0.4 mm 2 mps 704 mmHg 94%
    03:00 +21°C° 0.4 mm 2 mps 704 mmHg 94%
    04:00 +21°C° 0.4 mm 2 mps 704 mmHg 94%
    05:00 +21°C° 0.1 mm 2 mps 704 mmHg 93%
    06:00 +21°C° 0.1 mm 2 mps 704 mmHg 93%
    07:00 +23°C° 0.1 mm 2 mps 705 mmHg 92%
    08:00 +24°C° 0 mm 3 mps 705 mmHg 86%
    09:00 +25°C° 0 mm 3 mps 706 mmHg 81%
    10:00 +27°C° 0 mm 3 mps 706 mmHg 75%
    11:00 +27°C° 0.1 mm 3 mps 706 mmHg 72%
    12:00 +28°C° 0.1 mm 3 mps 706 mmHg 68%
    13:00 +28°C° 0.1 mm 3 mps 705 mmHg 65%
    14:00 +28°C° 0.2 mm 3 mps 705 mmHg 68%
    15:00 +27°C° 0.2 mm 3 mps 705 mmHg 71%
    16:00 +27°C° 0.2 mm 3 mps 704 mmHg 74%
    17:00 +25°C° 0.3 mm 3 mps 704 mmHg 79%
    18:00 +24°C° 0.3 mm 3 mps 705 mmHg 85%
    19:00 +23°C° 0.3 mm 2 mps 705 mmHg 91%
    20:00 +23°C° 0.2 mm 2 mps 705 mmHg 92%
    21:00 +23°C° 0.2 mm 2 mps 705 mmHg 92%
    22:00 +23°C° 0.2 mm 2 mps 705 mmHg 93%
    23:00 +21°C° 0.6 mm 2 mps 705 mmHg 93%

    Day after tomorrow, 23 November, Thursday

    Time Temperature Precipitation Wind Pressure Humidity
    00:00 +21°C° 0.6 mm 2 mps 705 mmHg 94%
    01:00 +21°C° 0.6 mm 2 mps 705 mmHg 94%
    02:00 +21°C° 0.6 mm 2 mps 704 mmHg 94%
    03:00 +21°C° 0.6 mm 2 mps 704 mmHg 94%
    04:00 +21°C° 0.6 mm 2 mps 704 mmHg 94%
    05:00 +21°C° 0.1 mm 2 mps 704 mmHg 93%
    06:00 +21°C° 0.1 mm 2 mps 705 mmHg 92%
    07:00 +21°C° 0.1 mm 2 mps 705 mmHg 92%
    08:00 +24°C° 0.3 mm 2 mps 705 mmHg 83%
    09:00 +26°C° 0.3 mm 2 mps 706 mmHg 74%
    10:00 +28°C° 0.3 mm 2 mps 706 mmHg 66%
    11:00 +28°C° 0.4 mm 3 mps 706 mmHg 63%
    12:00 +29°C° 0.4 mm 3 mps 705 mmHg 61%
    13:00 +29°C° 0.4 mm 3 mps 705 mmHg 59%
    14:00 +28°C° 0.6 mm 3 mps 704 mmHg 63%
    15:00 +27°C° 0.6 mm 3 mps 704 mmHg 68%
    16:00 +26°C° 0.6 mm 3 mps 703 mmHg 72%
    17:00 +25°C° 1.1 mm 2 mps 704 mmHg 77%
    18:00 +24°C° 1.1 mm 2 mps 704 mmHg 83%
    19:00 +21°C° 1.1 mm 2 mps 704 mmHg 88%
    20:00 +21°C° 0.8 mm 2 mps 704 mmHg 88%
    21:00 +21°C° 0.8 mm 2 mps 705 mmHg 89%
    22:00 +21°C° 0.8 mm 2 mps 705 mmHg 89%
    23:00 +21°C° 0.2 mm 2 mps 705 mmHg 89%

    24 November, Friday

    Time Temperature Precipitation Wind Pressure Humidity
    00:00 +21°C° 0.2 mm 2 mps 705 mmHg 89%
    01:00 +21°C° 0.2 mm 2 mps 704 mmHg 89%
    02:00 +20°C° 0.1 mm 2 mps 704 mmHg 89%
    03:00 +20°C° 0.1 mm 2 mps 704 mmHg 89%
    04:00 +20°C° 0.1 mm 2 mps 704 mmHg 89%
    05:00 +20°C° 0.1 mm 2 mps 704 mmHg 88%
    06:00 +21°C° 0.1 mm 2 mps 705 mmHg 88%
    07:00 +21°C° 0.1 mm 2 mps 705 mmHg 88%
    08:00 +24°C° 0.1 mm 2 mps 706 mmHg 81%
    09:00 +25°C° 0.1 mm 2 mps 706 mmHg 74%
    10:00 +27°C° 0.1 mm 2 mps 707 mmHg 67%
    11:00 +28°C° 0.3 mm 2 mps 706 mmHg 64%
    12:00 +28°C° 0.3 mm 2 mps 706 mmHg 62%
    13:00 +28°C° 0.3 mm 3 mps 705 mmHg 60%
    14:00 +28°C° 0.1 mm 3 mps 705 mmHg 63%
    15:00 +27°C° 0.1 mm 3 mps 705 mmHg 65%
    16:00 +27°C° 0.1 mm 3 mps 704 mmHg 68%
    17:00 +26°C° 0.5 mm 2 mps 705 mmHg 74%
    18:00 +24°C° 0.5 mm 2 mps 705 mmHg 80%
    19:00 +23°C° 0.5 mm 1 mps 705 mmHg 87%
    20:00 +23°C° 0 mm 1 mps 706 mmHg 88%
    21:00 +22°C° 0 mm 1 mps 706 mmHg 90%
    22:00 +22°C° 0 mm 1 mps 706 mmHg 91%
    23:00 +21°C° 0 mm 2 mps 706 mmHg 92%

    25 November, Saturday

    Time Temperature Precipitation Wind Pressure Humidity
    00:00 +21°C° 0 mm 2 mps 706 mmHg 92%
    01:00 +21°C° 0 mm 2 mps 705 mmHg 93%
    02:00 +21°C° 0 mm 2 mps 705 mmHg 93%
    03:00 +21°C° 0 mm 2 mps 705 mmHg 93%
    04:00 +21°C° 0 mm 2 mps 705 mmHg 94%
    05:00 +21°C° 0 mm 2 mps 705 mmHg 93%
    06:00 +21°C° 0 mm 2 mps 706 mmHg 92%
    07:00 +21°C° 0 mm 2 mps 706 mmHg 91%
    08:00 +24°C° 0 mm 2 mps 706 mmHg 81%
    09:00 +26°C° 0 mm 2 mps 707 mmHg 71%
    10:00 +28°C° 0 mm 2 mps 708 mmHg 61%
    11:00 +28°C° 0.5 mm 2 mps 707 mmHg 63%
    12:00 +28°C° 0.5 mm 2 mps 706 mmHg 65%
    13:00 +28°C° 0.5 mm 2 mps 706 mmHg 66%
    14:00 +27°C° 0.8 mm 2 mps 706 mmHg 70%
    15:00 +27°C° 0.8 mm 2 mps 705 mmHg 73%
    16:00 +26°C° 0.8 mm 2 mps 705 mmHg 77%
    17:00 +25°C° 0.8 mm 2 mps 705 mmHg 81%
    18:00 +24°C° 0.8 mm 1 mps 705 mmHg 84%
    19:00 +23°C° 0.8 mm 1 mps 706 mmHg 88%
    20:00 +23°C° 0.6 mm 1 mps 706 mmHg 89%
    21:00 +22°C° 0.6 mm 1 mps 706 mmHg 90%
    22:00 +22°C° 0.6 mm 1 mps 706 mmHg 91%
    23:00 +22°C° 0.3 mm 1 mps 706 mmHg 91%

    26 November, Sunday

    Time Temperature Precipitation Wind Pressure Humidity
    00:00 +22°C° 0.3 mm 1 mps 706 mmHg 91%
    01:00 +22°C° 0.3 mm 1 mps 705 mmHg 92%
    02:00 +22°C° 0.4 mm 1 mps 705 mmHg 92%
    03:00 +22°C° 0.4 mm 1 mps 705 mmHg 92%
    04:00 +21°C° 0.4 mm 1 mps 705 mmHg 92%
    05:00 +22°C° 0.1 mm 1 mps 705 mmHg 92%
    06:00 +22°C° 0.1 mm 1 mps 706 mmHg 92%
    07:00 +22°C° 0.1 mm 1 mps 706 mmHg 92%
    08:00 +24°C° 0 mm 1 mps 706 mmHg 84%
    09:00 +25°C° 0 mm 1 mps 707 mmHg 75%
    10:00 +27°C° 0 mm 1 mps 707 mmHg 67%
    11:00 +27°C° 0.3 mm 1 mps 706 mmHg 67%
    12:00 +28°C° 0.3 mm 1 mps 706 mmHg 66%
    13:00 +28°C° 0.3 mm 1 mps 705 mmHg 66%
    14:00 +27°C° 0.5 mm 2 mps 705 mmHg 69%
    15:00 +27°C° 0.5 mm 2 mps 705 mmHg 72%
    16:00 +26°C° 0.5 mm 2 mps 704 mmHg 75%
    17:00 +25°C° 0.3 mm 2 mps 705 mmHg 79%
    18:00 +24°C° 0.3 mm 2 mps 705 mmHg 84%
    19:00 +21°C° 0.3 mm 2 mps 705 mmHg 89%
    20:00 +21°C° 0.3 mm 2 mps 705 mmHg 90%
    21:00 +21°C° 0.3 mm 2 mps 705 mmHg 91%
    22:00 +21°C° 0.3 mm 2 mps 706 mmHg 92%
    23:00 +21°C° 0.6 mm 2 mps 705 mmHg 92%
    Show more